When you browse on this site, cookies collect data to enhance your experience and personalize the content and advertising you see.
Visit our Privacy Policy to learn more. By continuing to use the site, you agree to this use of cookies and data.
  • In Schweiz
  • Länderverzeichnis
  • Für 7 Tage
  • Wassertemperatur
  • Wetterkarte
  • Widgets
  • user-avatar
    Anmelden

    Stündliche Wetter Sylchet

    Heute, 22 Oktober, Dienstag

    Zeit Temperatur Niederschläge Wind Luftdruck Luftfeuchtigkeit
    00:00 +26°C° 0 mm 1 m/S 756 mmHg 77%
    01:00 +26°C° 0 mm 1 m/S 756 mmHg 79%
    02:00 +24°C° 0 mm 0 m/S 755 mmHg 81%
    03:00 +23°C° 0 mm 0 m/S 755 mmHg 83%
    04:00 +23°C° 0 mm 0 m/S 756 mmHg 84%
    05:00 +23°C° 0 mm 0 m/S 756 mmHg 86%
    06:00 +26°C° 0 mm 1 m/S 756 mmHg 95%
    07:00 +27°C° 1.1 mm 1 m/S 756 mmHg 89%
    08:00 +28°C° 1.1 mm 1 m/S 757 mmHg 83%
    09:00 +30°C° 1.1 mm 2 m/S 757 mmHg 77%
    10:00 +31°C° 0.3 mm 2 m/S 757 mmHg 70%
    11:00 +32°C° 0.3 mm 2 m/S 756 mmHg 63%
    12:00 +34°C° 0.3 mm 2 m/S 756 mmHg 56%
    13:00 +34°C° 0.1 mm 2 m/S 755 mmHg 56%
    14:00 +35°C° 0.1 mm 2 m/S 755 mmHg 56%
    15:00 +35°C° 0.1 mm 2 m/S 754 mmHg 55%
    16:00 +32°C° 0.1 mm 2 m/S 754 mmHg 62%
    17:00 +30°C° 0.1 mm 2 m/S 754 mmHg 68%
    18:00 +29°C° 0.1 mm 1 m/S 755 mmHg 75%
    19:00 +28°C° 0 mm 1 m/S 755 mmHg 77%
    20:00 +27°C° 0 mm 1 m/S 756 mmHg 80%
    21:00 +27°C° 0 mm 1 m/S 756 mmHg 82%
    22:00 +24°C° 0.1 mm 0 m/S 756 mmHg 83%
    23:00 +24°C° 0.1 mm 0 m/S 756 mmHg 85%

    Morgen, 23 Oktober, Mittwoch

    Zeit Temperatur Niederschläge Wind Luftdruck Luftfeuchtigkeit
    00:00 +24°C° 0.1 mm 0 m/S 756 mmHg 86%
    01:00 +23°C° 0 mm 0 m/S 756 mmHg 88%
    02:00 +25°C° 0 mm 1 m/S 755 mmHg 89%
    03:00 +25°C° 0 mm 1 m/S 755 mmHg 90%
    04:00 +25°C° 0 mm 1 m/S 755 mmHg 92%
    05:00 +24°C° 0 mm 1 m/S 755 mmHg 93%
    06:00 +24°C° 0 mm 1 m/S 755 mmHg 95%
    07:00 +26°C° 0 mm 2 m/S 756 mmHg 88%
    08:00 +27°C° 0 mm 2 m/S 756 mmHg 82%
    09:00 +29°C° 0 mm 2 m/S 756 mmHg 76%
    10:00 +31°C° 0 mm 1 m/S 756 mmHg 69%
    11:00 +32°C° 0 mm 1 m/S 756 mmHg 62%
    12:00 +33°C° 0 mm 1 m/S 755 mmHg 55%
    13:00 +33°C° 0 mm 1 m/S 755 mmHg 54%
    14:00 +33°C° 0 mm 1 m/S 754 mmHg 53%
    15:00 +33°C° 0 mm 1 m/S 754 mmHg 53%
    16:00 +31°C° 0 mm 1 m/S 754 mmHg 56%
    17:00 +30°C° 0 mm 1 m/S 754 mmHg 60%
    18:00 +28°C° 0 mm 2 m/S 755 mmHg 64%
    19:00 +28°C° 0 mm 2 m/S 755 mmHg 65%
    20:00 +28°C° 0 mm 1 m/S 755 mmHg 66%
    21:00 +27°C° 0 mm 1 m/S 756 mmHg 67%
    22:00 +27°C° 0 mm 1 m/S 756 mmHg 67%
    23:00 +27°C° 0 mm 1 m/S 756 mmHg 68%

    übermorgen, 24 Oktober, Donnerstag

    Zeit Temperatur Niederschläge Wind Luftdruck Luftfeuchtigkeit
    00:00 +25°C° 0 mm 0 m/S 756 mmHg 68%
    01:00 +24°C° 0 mm 0 m/S 756 mmHg 69%
    02:00 +24°C° 0 mm 0 m/S 755 mmHg 69%
    03:00 +24°C° 0 mm 0 m/S 755 mmHg 70%
    04:00 +24°C° 0 mm 0 m/S 756 mmHg 70%
    05:00 +24°C° 0 mm 0 m/S 756 mmHg 71%
    06:00 +26°C° 0 mm 1 m/S 756 mmHg 71%
    07:00 +25°C° 0.1 mm 1 m/S 757 mmHg 74%
    08:00 +25°C° 0.1 mm 1 m/S 757 mmHg 77%
    09:00 +24°C° 0.1 mm 1 m/S 758 mmHg 80%
    10:00 +25°C° 0 mm 1 m/S 758 mmHg 77%
    11:00 +26°C° 0 mm 1 m/S 757 mmHg 75%
    12:00 +26°C° 0 mm 1 m/S 757 mmHg 72%
    13:00 +26°C° 0 mm 2 m/S 757 mmHg 76%
    14:00 +25°C° 0 mm 2 m/S 756 mmHg 80%
    15:00 +25°C° 0 mm 3 m/S 756 mmHg 84%
    16:00 +24°C° 0 mm 3 m/S 756 mmHg 81%
    17:00 +22°C° 0 mm 3 m/S 756 mmHg 78%
    18:00 +21°C° 0 mm 3 m/S 756 mmHg 75%
    19:00 +21°C° 0 mm 3 m/S 757 mmHg 77%
    20:00 +21°C° 0 mm 3 m/S 758 mmHg 78%
    21:00 +21°C° 0 mm 2 m/S 758 mmHg 80%
    22:00 +21°C° 0.2 mm 2 m/S 758 mmHg 83%
    23:00 +21°C° 0.2 mm 2 m/S 758 mmHg 87%

    25 Oktober, Freitag

    Zeit Temperatur Niederschläge Wind Luftdruck Luftfeuchtigkeit
    00:00 +21°C° 0.2 mm 3 m/S 758 mmHg 90%
    01:00 +21°C° 0.2 mm 2 m/S 757 mmHg 92%
    02:00 +21°C° 0.2 mm 2 m/S 757 mmHg 93%
    03:00 +21°C° 0.2 mm 2 m/S 757 mmHg 94%
    04:00 +21°C° 0.1 mm 2 m/S 757 mmHg 95%
    05:00 +22°C° 0.1 mm 1 m/S 757 mmHg 95%
    06:00 +22°C° 0.1 mm 1 m/S 757 mmHg 95%
    07:00 +23°C° 0 mm 1 m/S 757 mmHg 91%
    08:00 +24°C° 0 mm 2 m/S 758 mmHg 87%
    09:00 +25°C° 0 mm 2 m/S 758 mmHg 83%
    10:00 +26°C° 0 mm 2 m/S 758 mmHg 81%
    11:00 +26°C° 0 mm 2 m/S 757 mmHg 80%
    12:00 +27°C° 0 mm 2 m/S 757 mmHg 78%
    13:00 +26°C° 0 mm 3 m/S 757 mmHg 80%
    14:00 +26°C° 0 mm 3 m/S 756 mmHg 82%
    15:00 +26°C° 0 mm 3 m/S 756 mmHg 84%
    16:00 +25°C° 0.1 mm 3 m/S 756 mmHg 87%
    17:00 +24°C° 0.1 mm 2 m/S 757 mmHg 90%
    18:00 +23°C° 0.1 mm 2 m/S 757 mmHg 94%
    19:00 +23°C° 0.2 mm 1 m/S 757 mmHg 94%
    20:00 +23°C° 0.2 mm 1 m/S 758 mmHg 94%
    21:00 +23°C° 0.2 mm 1 m/S 758 mmHg 95%
    22:00 +23°C° 0.2 mm 1 m/S 758 mmHg 94%
    23:00 +23°C° 0.2 mm 1 m/S 758 mmHg 94%

    26 Oktober, Samstag

    Zeit Temperatur Niederschläge Wind Luftdruck Luftfeuchtigkeit
    00:00 +23°C° 0.2 mm 1 m/S 758 mmHg 94%
    01:00 +23°C° 0.2 mm 1 m/S 758 mmHg 94%
    02:00 +23°C° 0.2 mm 1 m/S 758 mmHg 94%
    03:00 +23°C° 0.2 mm 1 m/S 757 mmHg 94%
    04:00 +23°C° 0.7 mm 1 m/S 758 mmHg 94%
    05:00 +23°C° 0.7 mm 1 m/S 758 mmHg 95%
    06:00 +22°C° 0.7 mm 1 m/S 758 mmHg 96%
    07:00 +22°C° 2 mm 1 m/S 759 mmHg 96%
    08:00 +22°C° 2 mm 1 m/S 759 mmHg 97%
    09:00 +22°C° 2 mm 1 m/S 760 mmHg 97%
    10:00 +23°C° 1 mm 1 m/S 760 mmHg 96%
    11:00 +24°C° 1 mm 2 m/S 759 mmHg 95%
    12:00 +24°C° 1 mm 2 m/S 759 mmHg 93%
    13:00 +24°C° 0.1 mm 2 m/S 758 mmHg 93%
    14:00 +24°C° 0.1 mm 2 m/S 757 mmHg 92%
    15:00 +24°C° 0.1 mm 2 m/S 757 mmHg 92%
    16:00 +24°C° 0 mm 1 m/S 757 mmHg 92%
    17:00 +24°C° 0 mm 1 m/S 757 mmHg 93%
    18:00 +24°C° 0 mm 1 m/S 757 mmHg 94%
    19:00 +23°C° 0 mm 1 m/S 758 mmHg 94%
    20:00 +23°C° 0 mm 2 m/S 758 mmHg 95%
    21:00 +23°C° 0 mm 2 m/S 759 mmHg 95%
    22:00 +23°C° 0 mm 1 m/S 759 mmHg 95%
    23:00 +23°C° 0 mm 1 m/S 759 mmHg 94%

    27 Oktober, Sonntag

    Zeit Temperatur Niederschläge Wind Luftdruck Luftfeuchtigkeit
    00:00 +21°C° 0 mm 0 m/S 759 mmHg 94%
    01:00 +21°C° 0 mm 0 m/S 758 mmHg 94%
    02:00 +20°C° 0 mm 0 m/S 758 mmHg 95%
    03:00 +20°C° 0 mm 0 m/S 758 mmHg 95%
    04:00 +20°C° 0 mm 0 m/S 758 mmHg 95%
    05:00 +22°C° 0 mm 1 m/S 758 mmHg 95%
    06:00 +22°C° 0 mm 1 m/S 758 mmHg 96%
    07:00 +24°C° 0 mm 1 m/S 758 mmHg 89%
    08:00 +25°C° 0 mm 2 m/S 758 mmHg 83%
    09:00 +27°C° 0 mm 2 m/S 759 mmHg 76%
    10:00 +29°C° 0 mm 1 m/S 758 mmHg 71%
    11:00 +30°C° 0 mm 1 m/S 758 mmHg 66%
    12:00 +32°C° 0 mm 1 m/S 757 mmHg 60%
    13:00 +32°C° 0 mm 1 m/S 756 mmHg 59%
    14:00 +32°C° 0 mm 1 m/S 756 mmHg 58%
    15:00 +32°C° 0 mm 1 m/S 755 mmHg 57%
    16:00 +30°C° 0 mm 2 m/S 756 mmHg 63%
    17:00 +29°C° 0 mm 2 m/S 756 mmHg 69%
    18:00 +27°C° 0 mm 2 m/S 756 mmHg 76%
    19:00 +26°C° 0 mm 2 m/S 757 mmHg 77%
    20:00 +25°C° 0 mm 2 m/S 757 mmHg 79%
    21:00 +24°C° 0 mm 2 m/S 758 mmHg 81%
    22:00 +24°C° 0 mm 2 m/S 757 mmHg 81%
    23:00 +24°C° 0 mm 1 m/S 757 mmHg 80%

    28 Oktober, Montag

    Zeit Temperatur Niederschläge Wind Luftdruck Luftfeuchtigkeit
    00:00 +23°C° 0 mm 1 m/S 757 mmHg 80%
    01:00 +23°C° 0 mm 1 m/S 757 mmHg 80%
    02:00 +23°C° 0 mm 1 m/S 757 mmHg 81%
    03:00 +23°C° 0 mm 1 m/S 756 mmHg 81%
    04:00 +22°C° 0 mm 1 m/S 757 mmHg 82%
    05:00 +22°C° 0 mm 1 m/S 757 mmHg 83%
    06:00 +22°C° 0 mm 1 m/S 757 mmHg 85%
    07:00 +24°C° 0 mm 1 m/S 758 mmHg 81%
    08:00 +26°C° 0 mm 1 m/S 758 mmHg 77%
    09:00 +28°C° 0 mm 1 m/S 759 mmHg 73%
    10:00 +29°C° 0 mm 1 m/S 758 mmHg 68%
    11:00 +31°C° 0 mm 1 m/S 757 mmHg 64%
    12:00 +32°C° 0 mm 1 m/S 757 mmHg 60%
    13:00 +32°C° 0 mm 1 m/S 756 mmHg 57%
    14:00 +33°C° 0 mm 1 m/S 756 mmHg 55%
    15:00 +31°C° 0 mm 0 m/S 755 mmHg 53%
    16:00 +29°C° 0 mm 0 m/S 755 mmHg 59%
    17:00 +29°C° 0 mm 1 m/S 756 mmHg 64%
    18:00 +28°C° 0 mm 1 m/S 756 mmHg 70%
    19:00 +27°C° 0 mm 1 m/S 756 mmHg 73%
    20:00 +26°C° 0 mm 1 m/S 757 mmHg 76%
    21:00 +26°C° 0 mm 1 m/S 757 mmHg 78%
    22:00 +25°C° 0 mm 1 m/S 757 mmHg 80%
    23:00 +25°C° 0 mm 1 m/S 757 mmHg 81%
    Mehr zeigen